Regional Weather Roundup
Issued by NWS Wilmington, NC

Home | Current Version | Previous Version | Text Only | Print | Product List | Glossary On
Versions: 1 2 3 4 5 6 7 8 9 10 11 12 13 14 15 16 17 18 19 20 21 22 23 24 25 26 27 28
000
ASUS42 KILM 191613
RWRILM
RWRILM
REGIONAL HOURLY WEATHER ROUNDUP
NATIONAL WEATHER SERVICE WILMINGTON NC
1100 AM EST THU JAN 19 2017

NOTE: "FAIR" INDICATES FEW OR NO CLOUDS BELOW 12,000 FEET WITH NO
SIGNIFICANT WEATHER AND/OR OBSTRUCTIONS TO VISIBILITY.

...............WFO WILMINGTON COUNTY WARNING AREA...............

......COASTAL NC AND SC COUNTIES......

CITY           SKY/WX    TMP DP  RH WIND       PRES   REMARKS
WILMINGTON     SUNNY     57  45  64 VRB6      30.11F
N MYRTLE BEACH SUNNY     59  45  59 NE3       30.10S
MYRTLE BEACH   SUNNY     61  46  59 E12       30.12S

......INLAND NC AND SC COUNTIES.......

CITY           SKY/WX    TMP DP  RH WIND       PRES   REMARKS
LUMBERTON      SUNNY     56  41  57 E3        30.11F
ELIZABETHTOWN  SUNNY     55  43  64 E5        30.11F
WHITEVILLE     SUNNY     55  42  63 NE7       30.10F
FLORENCE       SUNNY     57  43  59 VRB5      30.11S
DARLINGTON     SUNNY     56  42  59 NE3       30.12S
KINGSTREE      FAIR      59  43  55 NE6       30.10S
HARTSVILLE     FAIR      55  36  47 NE5       30.11F
BENNETTSVILLE  FAIR      57  43  58 NE5       30.11F
CONWAY         FAIR      57  46  67 N3        30.11S
GEORGETOWN     FAIR      61  50  67 E8        30.10S
MARION         FAIR      55  43  62 NE5       30.11S

....................REST OF NORTH CAROLINA......................

.........EASTERN NC.........

CITY           SKY/WX    TMP DP  RH WIND       PRES   REMARKS
CAPE HATTERAS  SUNNY     51  44  77 VRB7      30.12R HAZE
JACKSONVILLE   SUNNY     54  44  69 NE6       30.11F
MOREHEAD CITY  SUNNY     55  45  68 NE10      30.11F
KENANSVILLE    SUNNY     55  43  62 NE3       30.11F
NEW BERN       SUNNY     52  44  74 N5        30.12F
ELIZABETH CITY SUNNY     50  40  68 N6        30.13S

.........CENTRAL NC.........

CITY           SKY/WX    TMP DP  RH WIND       PRES   REMARKS
RALEIGH DURHAM PTSUNNY   53  38  56 CALM      30.12F
ROCKY MOUNT    SUNNY     52  41  66 SE5       30.13F
ROANOKE RAPIDS NOT AVBL
FAYETTEVILLE   SUNNY     56  41  57 S6        30.11F
HOFFMAN        MOSUNNY   55  39  54 CALM      30.11S

.........WESTERN NC.........

CITY           SKY/WX    TMP DP  RH WIND       PRES   REMARKS
CHARLOTTE      CLOUDY    55  37  50 VRB5      30.13S
GREENSBORO     CLOUDY    51  40  65 CALM      30.11S
HICKORY        NOT AVBL
BOONE          NOT AVBL
ASHEVILLE      NOT AVBL

.....................REST OF SOUTH CAROLINA.....................

.........EASTERN SC.........

CITY           SKY/WX    TMP DP  RH WIND       PRES   REMARKS
CHARLESTON     CLOUDY    65  52  62 VRB6      30.07S
BEAUFORT MCAS  MOSUNNY   66  55  67 VRB3      30.05F
HILTON HEAD    SUNNY     70  54  56 N7        30.07

.........CENTRAL SC.........

CITY           SKY/WX    TMP DP  RH WIND       PRES   REMARKS
COLUMBIA       MOSUNNY   62  42  47 E8        30.08F
ORANGEBURG     CLOUDY    59  47  64 E9        30.08F
SUMTER SHAW    SUNNY     59  41  52 E6        30.08S

.........WESTERN SC.........

CITY           SKY/WX    TMP DP  RH WIND       PRES   REMARKS
GREENVILLE     NOT AVBL
ROCK HILL      SUNNY     56  38  50 VRB3      30.12S
ANDERSON       CLOUDY    59  36  42 E9        30.10R
CLEMSON        NOT AVBL
GREENWOOD      CLOUDY    58  37  45 E5        30.12R


...................COASTAL AND OFFSHORE REPORTS..................

................LOCAL PIERS AND NC RESERVE................


STATION/POSITION TIME  SKY/WX   TEMP    WIND        PRES    VSBY
                                AIR SEA DIR/SP/G
                 (UTC)          (F)     (DEG/KT/KT) (MB)    (MI)
JOHNY MRCER PIER 1542            51 54   30/  9/ 10 1018.6F
NC RESRV MASNBRO 1445            54      60/  6     1019.0
OCEAN CREST PIER NOT AVBL
SPRINGMAID  PIER NOT AVBL


................COASTAL AND OFFSHORE BUOYS................


STATION/POSITION TIME  SKY/WX   TEMP    WIND        PRES    VSBY
                                AIR SEA DIR/SP/G
                 (UTC)          (F)     (DEG/KT/KT) (MB)    (MI)
DIMNDSHOAL 41025 1550            52 76  360/ 14/ 17 1019.4R
WVE H/P(F/S)=  7/11 SWL H/P/D(F/S/D)=  7/ 70/11

CAPE LOOKOUT     1500            50      10/ 10/ 12 1019.9R
ONSLOW BAY 41036 NOT AVBL
ONSLOW BAY 41064 1508            55 62   50/ 12/ 16 1019.7R
ONSLOW BAY 41159 1543               62                N/A
WVE H/P(F/S)=  4/ 6 SWL H/P/D(F/S/D)=  2/ 80/11

MASNBO INL 41110 1559               54                N/A
WVE H/P(F/S)=  3/10

WILM HARBR 41108 1556               58                N/A
WVE H/P(F/S)=  3/ 3

27SE WRITB 41037 1508            57 69   50/ 12/ 16 1019.3R
FRYING PAN 41013 1550            62 71   40/ 14/ 16 1018.5F
WVE H/P(F/S)=  4/10 SWL H/P/D(F/S/D)=  3/ 70/10

SUNST NRSH 41024 1508            54 54   70/ 10/ 14 1019.0S
CAPRS NRSH 41029 1508            56 55   50/ 12/ 14 1018.2R
EDISTO     41004 1550            69 71   60/ 14/ 16 1017.0S
WVE H/P(F/S)=  3/ 8 SWL H/P/D(F/S/D)=  2/ 40/ 8



..........OFFSHORE BUOYS BEYOND 100 NM OFFSHORE...........
.....IN A TRIANGLE---HAT TO BERMUDA TO BAHAMAS TO HAT.....


STATION/POSITION TIME  SKY/WX   TEMP    WIND        PRES    VSBY
                                AIR SEA DIR/SP/G
                 (UTC)          (F)     (DEG/KT/KT) (MB)    (MI)
150E HAT   41001 NOT AVBL
W BERMUDA  41048 1550            66 70  320/ 21/ 27 1011.0F
WVE H/P(F/S)= 15/11 SWL H/P/D(F/S/D)=  8/290/11

ATLANTIC S 41049 1550            74 74  240/ 29/ 37 1008.8F
WVE H/P(F/S)=  8/ 6 SWL H/P/D(F/S/D)=  2/ 70/10

E BAHAMAS  41046 1550            75 78  290/  6/ 10 1017.6F
WVE H/P(F/S)=  4/ 8 SWL H/P/D(F/S/D)=  3/ 8

NE BAHAMAS 41047 1550            72 74  340/ 12/ 16 1015.5F
WVE H/P(F/S)=  6/ 7 SWL H/P/D(F/S/D)=  5/310/ 7

120E CANVRL41010 NOT AVBL

END




USA.gov is the U.S. government's official web portal to all federal, state and local government web resources and services.